Regional Weather Roundup
Issued by NWS Sioux Falls, SD

Home | Current Version | Previous Version | Graphics & Text | Print | Product List | Glossary On
Versions: 1 2 3 4 5 6 7 8 9 10 11 12 13 14 15 16 17 18 19 20 21 22 23 24 25 26 27 28 29 30 31 32 33 34 35 36 37 38 39 40 41 42 43 44 45 46 47 48 49 50
000
ASUS43 KFSD 151502
RWRFSD

WEATHER ROUNDUP FOR SE SOUTH DAKOTA/SW MINNESOTA/NW IOWA
NATIONAL WEATHER SERVICE SIOUX FALLS SD
900 AM CST MON JAN 15 2018

NOTE: "FAIR" INDICATES FEW OR NO CLOUDS BELOW 12,000 FEET WITH NO
SIGNIFICANT WEATHER AND OR OBSTRUCTIONS TO VISIBILITY.


SDZ038>040-050-052>070-151600-
SOUTHEAST SOUTH DAKOTA

CITY           SKY/WX    TMP DP  RH WIND       PRES   REMARKS
BROOKINGS      CLOUDY   -10 -16  74 MISG        N/A
CHAMBERLAIN    MOCLDY    -3 -10  74 NW21      30.66R WCI -27
HURON          MOCLDY    -6 -13  71 NW17      30.63R WCI -28
MADISON        FAIR      -9 -13  84 NW26G32   30.49R WCI -37
MITCHELL       CLEAR     -4 -11  72 NW22G31   30.63R WCI -28
SIOUX FALLS    PTCLDY    -5 -12  72 NW23G32   30.51R WCI -30
WINNER         FAIR      -3 -11  68 NW22G32   30.64R WCI -27
YANKTON        CLEAR     -3 -10  72 NW20G29   30.59R WCI -26
$$

MNZ071-072-080-081-089-090-097-098-151600-
SOUTHWEST MINNESOTA

CITY           SKY/WX    TMP DP  RH WIND       PRES   REMARKS
FAIRMONT       LGT SNOW  -5 -10  79 NW25G35   30.39R WCI -31
JACKSON        CLOUDY    -6 -13  71 NW26G35   30.39R HAZE    WCI -32
LUVERNE          N/A     -6 -13  71 NW23G31   30.48R HAZE    WCI -31
MARSHALL       CLOUDY    -8 -14  74 NW22G29   30.50R HAZE    WCI -33
MONTEVIDEO     CLOUDY    -8 -11  84 N16G28    30.52R WCI -30
PIPESTONE      PTCLDY    -9 -15  77 N21G29    30.44R HAZE    WCI -35
REDWOOD FALLS  CLOUDY    -6 -11  79 NW16G24   30.46R HAZE    WCI -28
WINDOM         LGT SNOW  -8 -20  54 NW26G36   30.40R VSB 3/4 WCI -35
WORTHINGTON    CLOUDY    -8 -14  74 NW21      30.43R WCI -33
$$

IAZ001>003-012>014-020>022-031-032-NEZ013-014-SDZ071-151600-
NORTHWEST IOWA

CITY           SKY/WX    TMP DP  RH WIND       PRES   REMARKS
CHEROKEE       PTCLDY    -3 -10  74 NW17G24   30.48R WCI -25
DENISON        MOSUNNY    0  -8  71 NW23G29   30.48R WCI -24
ESTHERVILLE    CLOUDY    -7 -12  79 NW23G35   30.40R HAZE    WCI -33
LE MARS        CLEAR     -2  -9  71 NW16G30   30.52R WCI -23
ORANGE CITY    CLEAR     -2  -8  78 NW15G24   30.47R WCI -22
SHELDON        CLOUDY    -6 -11  77 NW25      30.44R WCI -32
SIOUX CITY     CLEAR     -1  -9  68 NW26G37   30.54R WCI -26
SPENCER        CLOUDY    -5 -12  72 NW24G33   30.43R WCI -31
STORM LAKE     CLOUDY    -6 -11  77 NW24G32   30.42R WCI -32
$$

ABBREVIATIONS USED IN REMARKS
   TC - TEMPERATURE IN CELSIUS
  WCI - WIND CHILL INDEX
   HX - HEAT INDEX
  VSB - VISIBILITY





USA.gov is the U.S. government's official web portal to all federal, state and local government web resources and services.